Location: Austin
(30.3000°N, 97.7500°W)
Time: 11:02:57
(UTC-05:00)

Cosmos 407 Rocket - Pass Details

Date: 26 May 2023
Orbit: 742 x 785 km, 74.0° (Epoch: 30 May)

Event Time Altitude Azimuth Distance (km) Brightness Sun altitude
Rises 21:43:45 0° 204° (SSW) 3,255 6.6 -15.4°
Reaches altitude 10° 21:46:10 10° 207° (SSW) 2,333 5.9 -15.9°
Maximum altitude 21:51:24 60° 288° (WNW) 892 4.1 -16.8°
Drops below altitude 10° 21:56:40 10° 8° (N) 2,343 6.4 -17.6°
Sets 21:59:06 0° 12° (NNE) 3,271 7.1 -18.0°
